{"data":{"norad_id":69981,"epoch":"2026-09-20T04:00:03.000096Z","epoch_age_seconds":46615,"freshness":"FRESH","line1":"1 69981U 26159G   26263.16670139 -.00949233  00000+0 -28161-1 0  9998","line2":"2 69981  97.2848 104.9849 0001651 118.6178 310.8284 15.37586946  5783","mean_motion":15.37586946,"eccentricity":0.0001651,"inclination_deg":97.2848,"raan_deg":104.9849,"arg_perigee_deg":118.6178,"mean_anomaly_deg":310.8284,"bstar":-0.028161,"rev_number":578,"period_min":93.653240471775,"perigee_km":452.11946822786,"apogee_km":454.37519133356,"semimajor_km":6831.3843297807,"source":"CELESTRAK","updated_at":"2026-09-20T09:00:44.328928Z"}}